Time,TemperatureF,DewpointF,PressureIn,WindDirection,WindDirectionDegrees,WindSpeedMPH,WindSpeedGustMPH,Humidity,HourlyPrecipIn,Conditions,Clouds,dailyrainin,SoftwareType,DateUTC
2013-06-10 00:01:00,64.4,60.6,29.95,NNW,338,0.0,0.0,87,0.01,,,0.00,WUHU216HW,2013-06-10 04:01:00,
2013-06-10 00:02:00,64.4,60.6,29.94,NNW,338,0.0,0.0,87,0.01,,,0.00,WUHU216HW,2013-06-10 04:02:00,
2013-06-10 00:07:00,64.4,60.6,29.94,NNW,338,0.0,0.0,87,0.01,,,0.00,WUHU216HW,2013-06-10 04:07:00,
2013-06-10 00:12:00,64.4,60.6,29.94,NNW,338,0.0,0.0,87,0.00,,,0.00,WUHU216HW,2013-06-10 04:12:00,
2013-06-10 00:17:00,64.4,60.6,29.94,SW,225,0.0,0.7,87,0.00,,,0.00,WUHU216HW,2013-06-10 04:17:00,
2013-06-10 00:22:00,64.4,60.6,29.94,WSW,248,0.2,0.7,87,0.00,,,0.00,WUHU216HW,2013-06-10 04:22:00,
2013-06-10 00:27:00,64.4,60.6,29.94,NW,315,0.4,1.1,87,0.00,,,0.00,WUHU216HW,2013-06-10 04:27:00,
2013-06-10 00:32:00,64.4,60.6,29.94,WNW,293,0.0,1.1,87,0.00,,,0.00,WUHU216HW,2013-06-10 04:32:00,
2013-06-10 00:37:00,64.4,60.6,29.94,WNW,293,0.0,0.4,87,0.00,,,0.00,WUHU216HW,2013-06-10 04:37:00,
2013-06-10 00:42:00,64.3,60.4,29.94,WNW,293,0.0,0.4,87,0.00,,,0.00,WUHU216HW,2013-06-10 04:42:00,
2013-06-10 00:47:00,64.3,60.4,29.94,WNW,293,0.0,0.0,87,0.00,,,0.00,WUHU216HW,2013-06-10 04:47:00,
2013-06-10 00:52:00,64.3,60.4,29.93,WNW,293,0.0,0.0,87,0.00,,,0.00,WUHU216HW,2013-06-10 04:52:00,
2013-06-10 00:57:00,64.1,60.5,29.93,SSW,203,0.0,0.7,88,0.00,,,0.00,WUHU216HW,2013-06-10 04:57:00,
2013-06-10 01:02:00,64.1,60.5,29.93,SSW,203,0.4,1.1,88,0.00,,,0.00,WUHU216HW,2013-06-10 05:02:00,
2013-06-10 01:07:00,64.3,60.7,29.93,SSW,203,0.9,1.1,88,0.00,,,0.00,WUHU216HW,2013-06-10 05:07:00,
2013-06-10 01:12:00,64.3,60.7,29.93,SSW,203,0.0,1.1,88,0.01,,,0.01,WUHU216HW,2013-06-10 05:12:00,
2013-06-10 01:17:00,64.3,60.7,29.92,SSW,203,0.0,1.1,88,0.01,,,0.01,WUHU216HW,2013-06-10 05:17:00,
2013-06-10 01:22:00,64.3,60.7,29.92,SW,225,0.0,0.4,88,0.01,,,0.01,WUHU216HW,2013-06-10 05:22:00,
2013-06-10 01:27:00,64.3,60.7,29.92,SW,225,0.0,0.4,88,0.01,,,0.01,WUHU216HW,2013-06-10 05:27:00,
2013-06-10 01:32:00,64.3,60.7,29.92,WNW,293,0.0,0.0,88,0.01,,,0.01,WUHU216HW,2013-06-10 05:32:00,
2013-06-10 01:37:00,64.1,60.5,29.92,West,270,0.7,0.7,88,0.01,,,0.01,WUHU216HW,2013-06-10 05:37:00,
2013-06-10 01:42:00,64.1,60.8,29.92,NW,315,0.7,1.1,89,0.01,,,0.01,WUHU216HW,2013-06-10 05:42:00,
2013-06-10 01:47:00,64.1,60.8,29.92,NW,315,0.0,1.1,89,0.01,,,0.01,WUHU216HW,2013-06-10 05:47:00,
2013-06-10 01:52:00,64.1,60.8,29.91,NW,315,0.0,0.9,89,0.01,,,0.01,WUHU216HW,2013-06-10 05:52:00,
2013-06-10 01:57:00,63.9,60.7,29.91,North,0,0.0,0.4,89,0.01,,,0.01,WUHU216HW,2013-06-10 05:57:00,
2013-06-10 02:02:00,63.9,60.7,29.91,North,0,0.0,0.4,89,0.01,,,0.01,WUHU216HW,2013-06-10 06:02:00,
2013-06-10 02:07:00,63.9,60.7,29.91,North,0,0.0,0.0,89,0.01,,,0.01,WUHU216HW,2013-06-10 06:07:00,
2013-06-10 02:12:00,63.7,60.5,29.91,North,0,0.0,0.0,89,0.00,,,0.01,WUHU216HW,2013-06-10 06:12:00,
2013-06-10 02:17:00,63.7,60.5,29.91,North,0,0.0,0.0,89,0.00,,,0.01,WUHU216HW,2013-06-10 06:17:00,
2013-06-10 02:22:00,63.7,60.5,29.90,North,0,0.0,0.0,89,0.00,,,0.01,WUHU216HW,2013-06-10 06:22:00,
2013-06-10 02:27:00,63.7,60.5,29.90,NNW,338,0.0,0.0,89,0.00,,,0.01,WUHU216HW,2013-06-10 06:27:00,
2013-06-10 02:32:00,63.7,60.5,29.90,West,270,0.0,0.4,89,0.00,,,0.01,WUHU216HW,2013-06-10 06:32:00,
2013-06-10 02:37:00,63.7,60.5,29.90,West,270,0.0,0.4,89,0.00,,,0.01,WUHU216HW,2013-06-10 06:37:00,
2013-06-10 02:42:00,63.7,60.5,29.90,West,270,0.0,0.0,89,0.00,,,0.01,WUHU216HW,2013-06-10 06:42:00,
2013-06-10 02:47:00,63.7,60.5,29.89,West,270,0.0,0.4,89,0.00,,,0.01,WUHU216HW,2013-06-10 06:47:00,
2013-06-10 02:52:00,63.7,60.5,29.89,West,270,0.0,0.4,89,0.00,,,0.01,WUHU216HW,2013-06-10 06:52:00,
2013-06-10 02:57:00,63.7,60.5,29.89,West,270,0.0,0.0,89,0.00,,,0.01,WUHU216HW,2013-06-10 06:57:00,
2013-06-10 03:02:00,63.7,60.5,29.89,West,270,0.0,0.0,89,0.00,,,0.01,WUHU216HW,2013-06-10 07:02:00,
2013-06-10 03:07:00,63.7,60.8,29.89,West,270,0.0,0.0,90,0.00,,,0.01,WUHU216HW,2013-06-10 07:07:00,
2013-06-10 03:12:00,63.7,60.8,29.89,West,270,0.0,0.0,90,0.00,,,0.01,WUHU216HW,2013-06-10 07:12:00,
2013-06-10 03:17:00,63.7,60.8,29.89,West,270,0.0,0.0,90,0.00,,,0.01,WUHU216HW,2013-06-10 07:17:00,
2013-06-10 03:22:00,63.7,60.8,29.89,West,270,0.0,0.0,90,0.00,,,0.01,WUHU216HW,2013-06-10 07:22:00,
2013-06-10 03:27:00,63.7,60.8,29.88,West,270,0.0,0.0,90,0.00,,,0.01,WUHU216HW,2013-06-10 07:27:00,
2013-06-10 03:32:00,63.7,60.8,29.88,West,270,0.0,0.0,90,0.00,,,0.01,WUHU216HW,2013-06-10 07:32:00,
2013-06-10 03:37:00,63.7,60.8,29.88,West,270,0.0,0.0,90,0.01,,,0.02,WUHU216HW,2013-06-10 07:37:00,
2013-06-10 03:42:00,63.5,60.7,29.87,West,270,0.0,0.0,90,0.01,,,0.02,WUHU216HW,2013-06-10 07:42:00,
2013-06-10 03:47:00,63.5,60.7,29.88,West,270,0.0,0.0,90,0.01,,,0.02,WUHU216HW,2013-06-10 07:47:00,
2013-06-10 03:52:00,63.5,60.7,29.88,West,270,0.0,0.0,90,0.02,,,0.03,WUHU216HW,2013-06-10 07:52:00,
2013-06-10 03:57:00,63.5,60.7,29.87,West,270,0.0,0.0,90,0.02,,,0.03,WUHU216HW,2013-06-10 07:57:00,
2013-06-10 04:02:00,63.5,60.7,29.87,West,270,0.0,0.0,90,0.02,,,0.03,WUHU216HW,2013-06-10 08:02:00,
2013-06-10 04:07:00,63.5,60.7,29.87,West,270,0.0,0.0,90,0.02,,,0.03,WUHU216HW,2013-06-10 08:07:00,
2013-06-10 04:12:00,63.5,60.7,29.87,West,270,0.0,0.0,90,0.03,,,0.04,WUHU216HW,2013-06-10 08:12:00,
2013-06-10 04:17:00,63.5,60.7,29.87,West,270,0.0,0.0,90,0.03,,,0.04,WUHU216HW,2013-06-10 08:17:00,
2013-06-10 04:22:00,63.5,60.7,29.86,West,270,0.0,0.0,90,0.03,,,0.04,WUHU216HW,2013-06-10 08:22:00,
2013-06-10 04:27:00,63.5,60.7,29.86,West,270,0.0,0.0,90,0.03,,,0.04,WUHU216HW,2013-06-10 08:27:00,
2013-06-10 04:32:00,63.5,60.7,29.86,West,270,0.0,0.0,90,0.02,,,0.04,WUHU216HW,2013-06-10 08:32:00,
2013-06-10 04:37:00,63.7,60.8,29.86,West,270,0.0,0.0,90,0.02,,,0.04,WUHU216HW,2013-06-10 08:37:00,
2013-06-10 04:42:00,63.7,60.8,29.86,West,270,0.0,0.0,90,0.02,,,0.04,WUHU216HW,2013-06-10 08:42:00,
2013-06-10 04:47:00,63.7,60.8,29.86,West,270,0.0,0.0,90,0.02,,,0.04,WUHU216HW,2013-06-10 08:47:00,
2013-06-10 04:52:00,63.7,60.8,29.86,West,270,0.0,0.0,90,0.01,,,0.04,WUHU216HW,2013-06-10 08:52:00,
2013-06-10 04:57:00,63.7,60.8,29.86,West,270,0.0,0.0,90,0.01,,,0.04,WUHU216HW,2013-06-10 08:57:00,
2013-06-10 05:02:00,63.7,61.1,29.86,West,270,0.0,0.2,91,0.01,,,0.04,WUHU216HW,2013-06-10 09:02:00,
2013-06-10 05:07:00,63.7,61.1,29.85,West,270,0.0,0.2,91,0.02,,,0.06,WUHU216HW,2013-06-10 09:07:00,
2013-06-10 05:12:00,63.7,61.1,29.85,West,270,0.0,0.0,91,0.01,,,0.06,WUHU216HW,2013-06-10 09:12:00,
2013-06-10 05:17:00,63.7,61.1,29.85,West,270,0.0,0.0,91,0.01,,,0.06,WUHU216HW,2013-06-10 09:17:00,
2013-06-10 05:22:00,63.7,61.1,29.85,West,270,0.0,0.0,91,0.01,,,0.06,WUHU216HW,2013-06-10 09:22:00,
2013-06-10 05:27:00,63.7,61.1,29.85,West,270,0.0,0.0,91,0.01,,,0.06,WUHU216HW,2013-06-10 09:27:00,
2013-06-10 05:32:00,63.7,61.1,29.85,West,270,0.0,0.4,91,0.01,,,0.06,WUHU216HW,2013-06-10 09:32:00,
2013-06-10 05:37:00,63.7,61.1,29.84,West,270,0.0,0.4,91,0.01,,,0.06,WUHU216HW,2013-06-10 09:37:00,
2013-06-10 05:42:00,63.7,61.1,29.85,West,270,0.4,0.9,91,0.01,,,0.06,WUHU216HW,2013-06-10 09:42:00,
2013-06-10 05:47:00,63.7,61.4,29.85,NNW,338,0.7,1.3,92,0.01,,,0.06,WUHU216HW,2013-06-10 09:47:00,
2013-06-10 05:52:00,63.7,61.1,29.85,NNW,338,0.0,1.3,91,0.01,,,0.06,WUHU216HW,2013-06-10 09:52:00,
2013-06-10 05:57:00,63.7,61.1,29.85,WSW,248,1.1,1.1,91,0.01,,,0.06,WUHU216HW,2013-06-10 09:57:00,
2013-06-10 06:02:00,63.7,61.1,29.85,WSW,248,0.0,1.1,91,0.01,,,0.06,WUHU216HW,2013-06-10 10:02:00,
2013-06-10 06:07:00,63.7,61.1,29.84,NNE,23,0.0,1.1,91,0.00,,,0.06,WUHU216HW,2013-06-10 10:07:00,
2013-06-10 06:12:00,63.7,61.4,29.84,SE,135,0.0,0.9,92,0.00,,,0.06,WUHU216HW,2013-06-10 10:12:00,
2013-06-10 06:17:00,63.7,61.4,29.84,SE,135,0.0,0.9,92,0.00,,,0.06,WUHU216HW,2013-06-10 10:17:00,
2013-06-10 06:22:00,63.7,61.4,29.85,SE,135,0.0,0.0,92,0.00,,,0.06,WUHU216HW,2013-06-10 10:22:00,
2013-06-10 06:27:00,63.7,61.4,29.85,SE,135,0.0,0.0,92,0.01,,,0.06,WUHU216HW,2013-06-10 10:27:00,
2013-06-10 06:32:00,63.9,61.6,29.84,SE,135,0.0,0.9,92,0.01,,,0.06,WUHU216HW,2013-06-10 10:32:00,
2013-06-10 06:37:00,63.7,61.4,29.84,SE,135,0.0,0.9,92,0.01,,,0.06,WUHU216HW,2013-06-10 10:37:00,
2013-06-10 06:42:00,63.9,61.6,29.84,SSE,158,0.4,1.3,92,0.02,,,0.08,WUHU216HW,2013-06-10 10:42:00,
2013-06-10 06:47:00,63.7,61.4,29.84,SSE,158,0.0,1.3,92,0.02,,,0.08,WUHU216HW,2013-06-10 10:47:00,
2013-06-10 06:52:00,63.9,61.6,29.84,SSE,158,0.0,0.4,92,0.02,,,0.08,WUHU216HW,2013-06-10 10:52:00,
2013-06-10 06:57:00,63.9,61.6,29.84,SSE,158,0.0,0.0,92,0.02,,,0.08,WUHU216HW,2013-06-10 10:57:00,
2013-06-10 07:02:00,63.9,61.6,29.84,SSE,158,0.0,0.0,92,0.03,,,0.08,WUHU216HW,2013-06-10 11:02:00,
2013-06-10 07:07:00,64.1,61.7,29.84,SSE,158,0.0,0.0,92,0.04,,,0.09,WUHU216HW,2013-06-10 11:07:00,
2013-06-10 07:12:00,63.9,61.6,29.84,SSE,158,0.0,0.0,92,0.04,,,0.09,WUHU216HW,2013-06-10 11:12:00,
2013-06-10 07:17:00,63.9,61.6,29.84,SSE,158,0.0,0.0,92,0.05,,,0.11,WUHU216HW,2013-06-10 11:17:00,
2013-06-10 07:22:00,63.9,61.6,29.84,SSE,158,0.0,0.0,92,0.05,,,0.11,WUHU216HW,2013-06-10 11:22:00,
2013-06-10 07:27:00,63.9,61.6,29.84,SSE,158,0.0,0.0,92,0.05,,,0.11,WUHU216HW,2013-06-10 11:27:00,
2013-06-10 07:32:00,63.9,61.6,29.84,SSE,158,0.0,0.0,92,0.05,,,0.11,WUHU216HW,2013-06-10 11:32:00,
2013-06-10 07:37:00,63.9,61.6,29.84,SSE,158,0.0,0.0,92,0.04,,,0.11,WUHU216HW,2013-06-10 11:37:00,
2013-06-10 07:42:00,64.1,61.7,29.83,SSE,158,0.0,0.0,92,0.05,,,0.13,WUHU216HW,2013-06-10 11:42:00,
2013-06-10 07:47:00,64.1,61.7,29.83,SSE,158,0.0,0.0,92,0.06,,,0.13,WUHU216HW,2013-06-10 11:47:00,
2013-06-10 07:52:00,64.1,61.7,29.83,SSE,158,0.0,0.0,92,0.06,,,0.13,WUHU216HW,2013-06-10 11:52:00,
2013-06-10 07:57:00,64.1,61.7,29.83,SSE,158,0.7,0.9,92,0.06,,,0.15,WUHU216HW,2013-06-10 11:57:00,
2013-06-10 08:02:00,64.1,61.7,29.83,SSE,158,1.3,1.3,92,0.07,,,0.15,WUHU216HW,2013-06-10 12:02:00,
2013-06-10 08:07:00,64.3,61.9,29.83,SSE,158,0.7,1.3,92,0.07,,,0.17,WUHU216HW,2013-06-10 12:07:00,
2013-06-10 08:12:00,64.3,61.9,29.83,SSE,158,0.0,1.3,92,0.07,,,0.18,WUHU216HW,2013-06-10 12:12:00,
2013-06-10 08:17:00,64.3,61.9,29.83,SSE,158,0.0,0.9,92,0.09,,,0.20,WUHU216HW,2013-06-10 12:17:00,
2013-06-10 08:22:00,64.3,61.9,29.83,SSE,158,0.0,0.9,92,0.10,,,0.22,WUHU216HW,2013-06-10 12:22:00,
2013-06-10 08:27:00,64.3,61.9,29.83,SSE,158,0.0,0.0,92,0.10,,,0.22,WUHU216HW,2013-06-10 12:27:00,
2013-06-10 08:32:00,64.3,61.9,29.83,SSE,158,0.0,0.0,92,0.10,,,0.22,WUHU216HW,2013-06-10 12:32:00,
2013-06-10 08:37:00,64.4,62.1,29.83,SSE,158,0.0,0.0,92,0.11,,,0.24,WUHU216HW,2013-06-10 12:37:00,
2013-06-10 08:42:00,64.4,62.1,29.83,SSE,158,0.0,0.0,92,0.10,,,0.24,WUHU216HW,2013-06-10 12:42:00,
2013-06-10 08:47:00,64.3,61.9,29.83,SSE,158,0.0,0.0,92,0.10,,,0.24,WUHU216HW,2013-06-10 12:47:00,
2013-06-10 08:52:00,64.4,62.1,29.83,SSE,158,0.0,0.0,92,0.10,,,0.25,WUHU216HW,2013-06-10 12:52:00,
2013-06-10 08:57:00,64.4,62.1,29.83,SSE,158,0.0,0.0,92,0.09,,,0.25,WUHU216HW,2013-06-10 12:57:00,
2013-06-10 09:02:00,64.6,62.3,29.83,SSE,158,0.0,0.0,92,0.10,,,0.26,WUHU216HW,2013-06-10 13:02:00,
2013-06-10 09:07:00,64.6,62.3,29.83,SSE,158,0.0,0.0,92,0.09,,,0.26,WUHU216HW,2013-06-10 13:07:00,
2013-06-10 09:12:00,64.8,62.5,29.82,SSE,158,0.0,0.0,92,0.06,,,0.26,WUHU216HW,2013-06-10 13:12:00,
2013-06-10 09:17:00,64.8,62.5,29.82,SSE,158,0.0,0.0,92,0.05,,,0.26,WUHU216HW,2013-06-10 13:17:00,
2013-06-10 09:22:00,64.8,62.5,29.82,SSE,158,0.0,0.0,92,0.05,,,0.27,WUHU216HW,2013-06-10 13:22:00,
2013-06-10 09:27:00,65.0,62.7,29.82,SSE,158,0.0,0.0,92,0.05,,,0.27,WUHU216HW,2013-06-10 13:27:00,
2013-06-10 09:32:00,65.2,62.8,29.82,SSE,158,0.0,0.0,92,0.05,,,0.28,WUHU216HW,2013-06-10 13:32:00,
2013-06-10 09:37:00,65.2,62.8,29.82,SSE,158,0.0,0.0,92,0.04,,,0.28,WUHU216HW,2013-06-10 13:37:00,
2013-06-10 09:42:00,65.2,62.8,29.82,SSE,158,0.0,0.0,92,0.05,,,0.29,WUHU216HW,2013-06-10 13:42:00,
2013-06-10 09:47:00,65.2,62.8,29.82,SSE,158,0.0,0.0,92,0.06,,,0.30,WUHU216HW,2013-06-10 13:47:00,
2013-06-10 09:52:00,65.2,62.8,29.82,SSE,158,0.0,0.0,92,0.07,,,0.32,WUHU216HW,2013-06-10 13:52:00,
2013-06-10 09:57:00,65.2,62.8,29.82,SSE,158,0.0,0.0,92,0.07,,,0.32,WUHU216HW,2013-06-10 13:57:00,
2013-06-10 10:02:00,65.3,63.3,29.81,SSE,158,0.0,0.0,93,0.07,,,0.33,WUHU216HW,2013-06-10 14:02:00,
2013-06-10 10:07:00,65.5,63.5,29.81,SSE,158,0.0,0.0,93,0.07,,,0.33,WUHU216HW,2013-06-10 14:07:00,
2013-06-10 10:12:00,65.5,63.5,29.81,SSE,158,0.0,0.0,93,0.08,,,0.34,WUHU216HW,2013-06-10 14:12:00,
2013-06-10 10:17:00,65.7,63.6,29.81,SSE,158,0.0,0.7,93,0.08,,,0.34,WUHU216HW,2013-06-10 14:17:00,
2013-06-10 10:22:00,65.7,63.6,29.81,SSE,158,0.4,0.7,93,0.09,,,0.36,WUHU216HW,2013-06-10 14:22:00,
2013-06-10 10:27:00,65.7,63.6,29.81,WSW,248,0.4,1.1,93,0.09,,,0.36,WUHU216HW,2013-06-10 14:27:00,
2013-06-10 10:32:00,65.9,63.7,29.81,SSW,203,0.7,1.1,93,0.08,,,0.36,WUHU216HW,2013-06-10 14:32:00,
2013-06-10 10:37:00,65.9,63.7,29.81,WSW,248,0.9,1.1,93,0.08,,,0.36,WUHU216HW,2013-06-10 14:37:00,
2013-06-10 10:42:00,66.1,63.9,29.81,SSW,203,0.4,1.1,93,0.06,,,0.36,WUHU216HW,2013-06-10 14:42:00,
2013-06-10 10:47:00,66.2,64.1,29.81,SSE,158,0.0,2.0,93,0.06,,,0.36,WUHU216HW,2013-06-10 14:47:00,
2013-06-10 10:52:00,66.2,64.5,29.81,SSE,158,0.0,2.0,94,0.04,,,0.36,WUHU216HW,2013-06-10 14:52:00,
2013-06-10 10:57:00,66.4,64.6,29.81,NW,315,1.6,1.6,94,0.03,,,0.36,WUHU216HW,2013-06-10 14:57:00,
2013-06-10 11:02:00,66.8,65.0,29.81,West,270,0.0,1.6,94,0.03,,,0.36,WUHU216HW,2013-06-10 15:02:00,
2013-06-10 11:07:00,67.3,65.5,29.81,SW,225,1.6,1.6,94,0.03,,,0.36,WUHU216HW,2013-06-10 15:07:00,
2013-06-10 11:12:00,67.3,65.5,29.80,West,270,0.0,1.6,94,0.02,,,0.36,WUHU216HW,2013-06-10 15:12:00,
2013-06-10 11:17:00,67.9,66.1,29.80,SW,225,1.1,1.6,94,0.01,,,0.36,WUHU216HW,2013-06-10 15:17:00,
2013-06-10 11:22:00,68.0,66.3,29.80,SW,225,0.9,1.6,94,0.00,,,0.36,WUHU216HW,2013-06-10 15:22:00,
2013-06-10 11:27:00,68.0,66.3,29.80,SSW,203,0.9,1.8,94,0.00,,,0.36,WUHU216HW,2013-06-10 15:27:00,
2013-06-10 11:32:00,67.7,65.9,29.80,WSW,248,1.1,1.8,94,0.00,,,0.36,WUHU216HW,2013-06-10 15:32:00,
2013-06-10 11:37:00,67.5,65.3,29.80,North,0,0.9,2.2,93,0.02,,,0.38,WUHU216HW,2013-06-10 15:37:00,
2013-06-10 11:43:00,67.3,65.2,29.80,WSW,248,0.9,2.2,93,0.03,,,0.39,WUHU216HW,2013-06-10 15:43:00,
2013-06-10 11:48:00,67.1,65.0,29.80,SW,225,0.4,1.6,93,0.04,,,0.40,WUHU216HW,2013-06-10 15:48:00,
2013-06-10 11:53:00,67.0,64.8,29.80,WSW,248,0.7,1.6,93,0.05,,,0.41,WUHU216HW,2013-06-10 15:53:00,
2013-06-10 11:58:00,67.0,64.8,29.80,SSE,158,0.4,1.6,93,0.06,,,0.42,WUHU216HW,2013-06-10 15:58:00,
2013-06-10 12:03:00,67.1,65.0,29.80,WSW,248,0.9,1.6,93,0.06,,,0.42,WUHU216HW,2013-06-10 16:03:00,
2013-06-10 12:08:00,67.5,65.3,29.80,SW,225,0.7,1.3,93,0.06,,,0.42,WUHU216HW,2013-06-10 16:08:00,
2013-06-10 12:13:00,67.9,66.1,29.79,WSW,248,0.7,1.8,94,0.06,,,0.42,WUHU216HW,2013-06-10 16:13:00,
2013-06-10 12:18:00,68.4,66.6,29.79,South,180,0.9,2.0,94,0.06,,,0.42,WUHU216HW,2013-06-10 16:18:00,
2013-06-10 12:23:00,68.4,66.2,29.79,SW,225,0.2,2.0,93,0.06,,,0.42,WUHU216HW,2013-06-10 16:23:00,
2013-06-10 12:28:00,68.6,66.4,29.79,WSW,248,0.9,1.6,93,0.06,,,0.42,WUHU216HW,2013-06-10 16:28:00,
2013-06-10 12:33:00,68.4,66.2,29.79,NNW,338,0.0,1.6,93,0.05,,,0.42,WUHU216HW,2013-06-10 16:33:00,
2013-06-10 12:38:00,68.4,66.2,29.79,West,270,0.0,1.3,93,0.04,,,0.42,WUHU216HW,2013-06-10 16:38:00,
2013-06-10 12:43:00,68.4,66.2,29.79,South,180,0.4,1.6,93,0.06,,,0.45,WUHU216HW,2013-06-10 16:43:00,
2013-06-10 12:48:00,68.4,66.2,29.78,North,0,2.0,2.0,93,0.06,,,0.46,WUHU216HW,2013-06-10 16:48:00,
2013-06-10 12:53:00,68.6,66.4,29.78,SW,225,0.2,2.0,93,0.04,,,0.46,WUHU216HW,2013-06-10 16:53:00,
2013-06-10 12:58:00,68.9,66.8,29.78,WSW,248,1.1,2.0,93,0.04,,,0.46,WUHU216HW,2013-06-10 16:58:00,
2013-06-10 13:03:00,69.5,67.3,29.78,WSW,248,0.7,1.3,93,0.04,,,0.46,WUHU216HW,2013-06-10 17:03:00,
2013-06-10 13:08:00,70.0,67.9,29.77,West,270,0.7,1.8,93,0.04,,,0.46,WUHU216HW,2013-06-10 17:08:00,
2013-06-10 13:13:00,70.4,68.2,29.77,SSE,158,1.8,2.5,93,0.04,,,0.46,WUHU216HW,2013-06-10 17:13:00,
2013-06-10 13:18:00,70.7,68.6,29.77,NW,315,1.8,2.5,93,0.04,,,0.46,WUHU216HW,2013-06-10 17:18:00,
2013-06-10 13:23:00,70.7,68.6,29.76,SW,225,0.4,2.5,93,0.04,,,0.46,WUHU216HW,2013-06-10 17:23:00,
2013-06-10 13:28:00,70.6,68.1,29.76,SSW,203,0.4,2.5,92,0.04,,,0.46,WUHU216HW,2013-06-10 17:28:00,
2013-06-10 13:33:00,70.4,68.0,29.76,South,180,0.7,2.2,92,0.04,,,0.46,WUHU216HW,2013-06-10 17:33:00,
2013-06-10 13:38:00,70.2,67.8,29.76,South,180,0.2,2.2,92,0.03,,,0.46,WUHU216HW,2013-06-10 17:38:00,
2013-06-10 13:43:00,70.0,67.6,29.76,SW,225,0.4,3.4,92,0.00,,,0.46,WUHU216HW,2013-06-10 17:43:00,
2013-06-10 13:48:00,69.7,67.2,29.76,West,270,1.1,3.4,92,0.02,,,0.48,WUHU216HW,2013-06-10 17:48:00,
2013-06-10 13:53:00,69.7,67.2,29.76,WSW,248,1.6,2.0,92,0.02,,,0.48,WUHU216HW,2013-06-10 17:53:00,
2013-06-10 13:58:00,70.6,68.4,29.76,SW,225,2.9,3.4,93,0.02,,,0.48,WUHU216HW,2013-06-10 17:58:00,
2013-06-10 14:03:00,71.1,68.3,29.76,West,270,2.2,4.0,91,0.02,,,0.48,WUHU216HW,2013-06-10 18:03:00,
2013-06-10 14:08:00,71.6,68.9,29.75,West,270,0.7,4.0,91,0.02,,,0.48,WUHU216HW,2013-06-10 18:08:00,
2013-06-10 14:13:00,71.6,68.9,29.75,NNW,338,0.4,1.8,91,0.02,,,0.48,WUHU216HW,2013-06-10 18:13:00,
2013-06-10 14:18:00,71.3,68.5,29.75,SW,225,0.7,2.2,91,0.02,,,0.48,WUHU216HW,2013-06-10 18:18:00,
2013-06-10 14:23:00,70.4,64.9,29.76,North,0,13.4,13.4,83,0.03,,,0.49,WUHU216HW,2013-06-10 18:23:00,
2013-06-10 14:28:00,67.9,62.2,29.76,NW,315,3.6,15.0,82,0.05,,,0.51,WUHU216HW,2013-06-10 18:28:00,
2013-06-10 14:33:00,67.0,61.9,29.75,NW,315,3.4,15.0,84,0.05,,,0.51,WUHU216HW,2013-06-10 18:33:00,
2013-06-10 14:38:00,66.6,61.9,29.75,WNW,293,3.4,4.9,85,0.05,,,0.51,WUHU216HW,2013-06-10 18:38:00,
2013-06-10 14:43:00,66.4,60.5,29.75,West,270,0.9,7.6,81,0.05,,,0.51,WUHU216HW,2013-06-10 18:43:00,
2013-06-10 14:48:00,66.8,61.7,29.75,NNW,338,1.6,7.6,84,0.03,,,0.51,WUHU216HW,2013-06-10 18:48:00,
2013-06-10 14:53:00,67.3,63.6,29.75,SSE,158,2.7,4.7,88,0.03,,,0.51,WUHU216HW,2013-06-10 18:53:00,
2013-06-10 14:58:00,67.7,63.4,29.75,SE,135,0.4,4.0,86,0.03,,,0.51,WUHU216HW,2013-06-10 18:58:00,
2013-06-10 15:03:00,67.3,62.0,29.75,West,270,2.7,4.0,83,0.03,,,0.51,WUHU216HW,2013-06-10 19:03:00,
2013-06-10 15:08:00,67.3,62.6,29.75,SSW,203,0.9,3.4,85,0.03,,,0.51,WUHU216HW,2013-06-10 19:08:00,
2013-06-10 15:13:00,66.6,62.6,29.76,SSW,203,0.7,2.7,87,0.03,,,0.51,WUHU216HW,2013-06-10 19:13:00,
2013-06-10 15:18:00,65.9,62.2,29.75,SSE,158,0.0,1.1,88,0.03,,,0.51,WUHU216HW,2013-06-10 19:18:00,
2013-06-10 15:23:00,65.2,61.2,29.75,SSE,158,0.4,0.9,87,0.01,,,0.51,WUHU216HW,2013-06-10 19:23:00,
2013-06-10 15:28:00,64.8,61.2,29.75,SSE,158,0.9,1.8,88,0.00,,,0.51,WUHU216HW,2013-06-10 19:28:00,
2013-06-10 15:33:00,64.6,61.4,29.75,SSE,158,0.2,1.8,89,0.00,,,0.51,WUHU216HW,2013-06-10 19:33:00,
2013-06-10 15:38:00,64.4,61.2,29.75,SSE,158,0.7,1.8,89,0.00,,,0.51,WUHU216HW,2013-06-10 19:38:00,
2013-06-10 15:43:00,64.4,61.6,29.76,SSE,158,1.6,1.6,90,0.00,,,0.51,WUHU216HW,2013-06-10 19:43:00,
2013-06-10 15:48:00,64.4,61.6,29.75,SSE,158,0.9,1.6,90,0.00,,,0.51,WUHU216HW,2013-06-10 19:48:00,
2013-06-10 15:53:00,64.4,61.6,29.74,ENE,68,0.4,1.8,90,0.00,,,0.51,WUHU216HW,2013-06-10 19:53:00,
2013-06-10 16:04:00,65.0,62.0,29.74,ESE,113,0.4,1.8,90,0.00,,,0.51,WUHU216HW,2013-06-10 20:04:00,
2013-06-10 16:09:00,65.3,62.4,29.73,East,90,0.0,1.1,90,0.00,,,0.51,WUHU216HW,2013-06-10 20:09:00,
2013-06-10 16:11:00,65.3,62.4,29.73,ENE,68,0.7,1.1,90,0.00,,,0.51,WUHU216HW,2013-06-10 20:11:00,